Weather History for KFKS - February, 2014

Change the Weather History Date:

Tuesday, February 18, 2014

  Actual Average (KTVC) Record (KTVC)
Temperature  
Mean Temperature 25 °F 23 °F  
Max Temperature 41 °F 31 °F 57 °F (1994)
Min Temperature 9 °F 15 °F -26 °F (1979)
Degree Days  
Heating Degree Days 40 42  
Month to date heating degree days 777  
Since 1 July heating degree days 4933  
Moisture  
Dew Point 20 °F    
Average Humidity 77    
Maximum Humidity 91    
Minimum Humidity 50    
Precipitation  
Precipitation 0.00 in 0.05 in 0.55 in (1976)
Month to date precipitation 0.97  
Year to date precipitation 3.79  
Sea Level Pressure  
Sea Level Pressure 29.72 in    
Wind  
Wind Speed 4 mph (South)    
Max Wind Speed 15 mph    
Max Gust Speed 21 mph    
Visibility 10 miles    
Events Snow    
T = Trace of Precipitation, MM = Missing Value Source: NWS Daily Summary

Daily Weather History Graph

Daily Weather History Graph

Search for Another Location

Airport or City:

Trip Planner

Search our weather history database for the weather conditions in past years. The results will help you decide how hot, cold, wet, or windy it might be!

Date:

Astronomy

Feb. 18, 2014 Rise Set
Actual Time 7:40 AM EST 6:17 PM EST
Civil Twilight 7:10 AM EST 6:47 PM EST
Nautical Twilight 6:36 AM EST 7:21 PM EST
Astronomical Twilight 6:02 AM EST 7:55 PM EST
Moon 10:21 PM EST (2/18) 9:02 AM EST (2/18)
Length of Visible Light 11h 36m
Length of Day
10h 37m
Waning Gibbous, 87% of the Moon is Illuminated
Feb 18
Waning Gibbous
Feb 22
Last Quarter
Mar 1
New
Mar 8
First Quarter
Mar 16
Full

Hourly Weather History & Observations

Time (EST) Temp. Windchill Dew Point Humidity Pressure Visibility Wind Dir Wind Speed Gust Speed Precip Events Conditions
12:13 AM 15.8 °F - 12.6 °F 87% 29.73 in 10.0 mi Calm Calm - N/A Snow Light Snow
12:34 AM 15.8 °F - 12.2 °F 86% 29.73 in 10.0 mi Calm Calm - N/A   Clear
12:54 AM 15.8 °F - 12.0 °F 85% 29.73 in 10.0 mi Calm Calm - N/A   Scattered Clouds
1:14 AM 16.0 °F - 12.0 °F 84% 29.74 in 10.0 mi Calm Calm - N/A   Mostly Cloudy
1:34 AM 15.4 °F - 11.5 °F 84% 29.74 in 10.0 mi Calm Calm - N/A   Scattered Clouds
1:54 AM 14.0 °F - 10.8 °F 87% 29.75 in 10.0 mi Calm Calm - N/A   Scattered Clouds
2:14 AM 13.6 °F - 10.4 °F 87% 29.75 in 10.0 mi Calm Calm - N/A   Mostly Cloudy
2:34 AM 13.8 °F - 10.4 °F 86% 29.77 in 10.0 mi Calm Calm - N/A   Overcast
2:54 AM 14.4 °F - 11.5 °F 88% 29.78 in 10.0 mi Calm Calm - N/A   Overcast
3:14 AM 14.4 °F - 10.9 °F 86% 29.79 in 10.0 mi Calm Calm - N/A   Overcast
3:34 AM 14.5 °F - 11.7 °F 88% 29.79 in 10.0 mi Calm Calm - N/A   Overcast
3:55 AM 14.0 °F - 11.3 °F 89% 29.80 in 10.0 mi Calm Calm - N/A   Overcast
4:15 AM 15.4 °F - 12.0 °F 86% 29.81 in 10.0 mi Calm Calm - N/A Snow Light Snow
4:35 AM 14.5 °F - 11.5 °F 88% 29.80 in 10.0 mi Calm Calm - N/A   Overcast
4:55 AM 12.6 °F - 10.2 °F 90% 29.82 in 10.0 mi Calm Calm - N/A   Mostly Cloudy
5:15 AM 12.4 °F - 9.9 °F 90% 29.81 in 10.0 mi Calm Calm - N/A   Mostly Cloudy
5:35 AM 9.9 °F - 7.7 °F 91% 29.82 in 3.0 mi Calm Calm - N/A Snow Light Snow
5:55 AM 11.5 °F - 9.0 °F 90% 29.82 in 10.0 mi Calm Calm - N/A   Overcast
6:15 AM 11.7 °F - 8.8 °F 88% 29.83 in 10.0 mi Calm Calm - N/A   Overcast
6:35 AM 12.9 °F - 10.2 °F 89% 29.83 in 10.0 mi Calm Calm - N/A   Overcast
6:56 AM 14.2 °F - 11.5 °F 89% 29.83 in 10.0 mi Calm Calm - N/A   Overcast
7:16 AM 14.2 °F - 11.3 °F 88% 29.83 in 10.0 mi Calm Calm - N/A   Overcast
7:36 AM 13.8 °F - 11.1 °F 89% 29.83 in 10.0 mi Calm Calm - N/A   Overcast
7:56 AM 15.4 °F - 12.9 °F 90% 29.83 in 10.0 mi Calm Calm - N/A   Overcast
8:11 AM 14.9 °F - 12.2 °F 89% 29.84 in 10.0 mi Calm Calm - N/A   Overcast
8:31 AM 15.8 °F - 13.1 °F 89% 29.85 in 10.0 mi Calm Calm - N/A   Overcast
8:51 AM 16.3 °F - 13.8 °F 90% 29.85 in 7.0 mi Calm Calm - N/A   Overcast
9:11 AM 17.6 °F - 14.5 °F 88% 29.85 in 7.0 mi Calm Calm - N/A   Overcast
9:31 AM 21.9 °F 17.2 °F 18.5 °F 87% 29.85 in 10.0 mi SSE 3.5 mph - N/A   Overcast
9:51 AM 23.4 °F 15.2 °F 19.4 °F 85% 29.85 in 10.0 mi South 6.9 mph - N/A   Overcast
10:12 AM 24.4 °F 15.6 °F 20.3 °F 84% 29.85 in 10.0 mi SSW 8.1 mph - N/A   Overcast
10:32 AM 25.2 °F 15.7 °F 20.5 °F 82% 29.84 in 10.0 mi South 9.2 mph - N/A   Overcast
10:52 AM 25.5 °F 16.2 °F 20.3 °F 81% 29.83 in 10.0 mi South 9.2 mph - N/A   Mostly Cloudy
11:12 AM 26.4 °F 16.0 °F 20.7 °F 79% 29.83 in 10.0 mi SSW 11.5 mph - N/A   Scattered Clouds
11:32 AM 27.3 °F 17.1 °F 20.7 °F 76% 29.84 in 10.0 mi SSW 11.5 mph - N/A   Scattered Clouds
11:52 AM 28.0 °F 20.0 °F 21.2 °F 76% 29.82 in 1.2 mi SSW 8.1 mph 18.4 mph N/A Snow Light Snow
12:12 PM 29.1 °F 20.6 °F 21.2 °F 72% 29.80 in 7.0 mi South 9.2 mph 17.3 mph N/A   Clear
12:32 PM 30.2 °F 22.6 °F 22.1 °F 72% 29.78 in 10.0 mi SSE 8.1 mph - N/A   Clear
12:52 PM 30.7 °F 20.9 °F 22.6 °F 72% 29.77 in 10.0 mi SSE 12.7 mph - N/A   Clear
1:13 PM 32.0 °F 22.1 °F 23.0 °F 69% 29.74 in 10.0 mi SSE 13.8 mph - N/A   Clear
1:33 PM 32.5 °F 22.7 °F 23.2 °F 68% 29.73 in 7.0 mi SSE 13.8 mph - N/A   Clear
1:53 PM 32.7 °F 24.5 °F 23.5 °F 69% 29.73 in 10.0 mi SSE 10.4 mph - N/A   Clear
2:13 PM 34.0 °F 26.0 °F 24.3 °F 68% 29.71 in 10.0 mi SSE 10.4 mph - N/A   Scattered Clouds
2:33 PM 35.6 °F 30.7 °F 24.6 °F 64% 29.67 in 10.0 mi SE 5.8 mph - N/A   Clear
2:53 PM 36.7 °F 29.9 °F 24.4 °F 61% 29.68 in 10.0 mi SSE 9.2 mph - N/A   Clear
3:13 PM 37.4 °F 29.8 °F 24.8 °F 60% 29.65 in 10.0 mi SSE 11.5 mph - N/A   Clear
3:33 PM 38.3 °F 31.4 °F 24.8 °F 58% 29.63 in 10.0 mi SSE 10.4 mph 17.3 mph N/A   Clear
3:54 PM 39.2 °F 32.0 °F 24.4 °F 56% 29.61 in 10.0 mi SSE 11.5 mph - N/A   Clear
4:14 PM 40.5 °F 32.5 °F 24.3 °F 52% 29.62 in 10.0 mi South 15.0 mph 20.7 mph N/A   Clear
4:34 PM 40.3 °F 35.5 °F 24.4 °F 53% 29.61 in 10.0 mi South 6.9 mph - N/A   Clear
4:54 PM 41.5 °F 35.0 °F 24.4 °F 51% 29.62 in 10.0 mi South 11.5 mph - N/A   Clear
5:14 PM 41.9 °F 36.3 °F 24.3 °F 50% 29.61 in 10.0 mi SSW 9.2 mph 17.3 mph N/A   Clear
5:34 PM 41.4 °F 35.7 °F 25.0 °F 52% 29.61 in 10.0 mi South 9.2 mph 20.7 mph N/A   Clear
5:54 PM 41.2 °F 35.0 °F 25.2 °F 53% 29.61 in 10.0 mi South 10.4 mph 18.4 mph N/A   Clear
6:14 PM 40.1 °F 34.7 °F 25.5 °F 56% 29.60 in 10.0 mi South 8.1 mph 16.1 mph N/A   Clear
6:34 PM 39.6 °F 33.0 °F 25.7 °F 58% 29.60 in 10.0 mi South 10.4 mph 19.6 mph N/A   Clear
6:55 PM 39.2 °F 32.5 °F 25.7 °F 58% 29.60 in 10.0 mi SSW 10.4 mph - N/A   Clear
7:15 PM 39.4 °F 32.7 °F 26.4 °F 60% 29.58 in 10.0 mi South 10.4 mph 17.3 mph N/A   Clear
7:35 PM 39.6 °F 32.1 °F 27.1 °F 61% 29.58 in 10.0 mi SSW 12.7 mph 18.4 mph N/A   Clear
7:55 PM 40.1 °F 33.2 °F 28.0 °F 62% 29.58 in 10.0 mi South 11.5 mph 17.3 mph N/A   Clear
8:15 PM 40.1 °F 33.6 °F 28.4 °F 63% 29.58 in 10.0 mi SSW 10.4 mph 20.7 mph N/A   Clear
8:35 PM 39.4 °F 32.7 °F 28.8 °F 66% 29.58 in 10.0 mi SSW 10.4 mph 18.4 mph N/A   Clear
8:55 PM 38.3 °F 30.5 °F 29.8 °F 72% 29.58 in 10.0 mi South 12.7 mph 19.6 mph N/A   Clear
9:15 PM 36.7 °F 29.4 °F 30.6 °F 78% 29.59 in 10.0 mi SSW 10.4 mph 19.6 mph N/A   Clear
9:35 PM 35.6 °F 28.0 °F 30.9 °F 83% 29.59 in 10.0 mi SSW 10.4 mph - N/A   Clear
9:55 PM 35.2 °F 28.8 °F 30.9 °F 84% 29.59 in 10.0 mi SW 8.1 mph - N/A   Clear
10:15 PM 34.7 °F 28.1 °F 30.9 °F 86% 29.59 in 10.0 mi WSW 8.1 mph - N/A   Clear
10:36 PM 34.3 °F 27.0 °F 31.1 °F 88% 29.59 in 10.0 mi SW 9.2 mph - N/A   Clear
10:56 PM 33.8 °F 27.7 °F 31.1 °F 90% 29.58 in 10.0 mi SW 6.9 mph - N/A   Clear
11:16 PM 33.6 °F 30.6 °F 30.9 °F 90% 29.58 in 10.0 mi SW 3.5 mph - N/A   Clear
11:36 PM 33.3 °F 27.9 °F 30.9 °F 91% 29.58 in 10.0 mi WSW 5.8 mph - N/A   Clear
11:51 PM 33.1 °F - 30.6 °F 90% 29.58 in 10.0 mi Calm Calm - N/A   Clear